Location: St. Louis
(38.6270°N, 90.1994°W)
Time: 21:53:05
(UTC-05:00)

Hubble Space Telescope - Pass Details

Date: 05 March 2014
Orbit: 539 x 543 km, 28.5° (Epoch: 27 July)

Event Time Altitude Azimuth Distance (km) Brightness Sun altitude
Rises 18:19:00 0° 237° (WSW) 2,694 5.5 -4.9°
Reaches altitude 10° 18:21:46 10° 219° (SW) 1,802 4.1 -5.5°
Maximum altitude 18:24:43 19° 174° (S) 1,336 2.8 -6.0°
Drops below altitude 10° 18:27:40 10° 128° (SE) 1,802 3.0 -6.6°
Enters shadow 18:29:01 - 118° (ESE) 2,208 3.4 -6.9°
